Regional Weather Roundup
Issued by NWS

Home | Current Version | Previous Version | Text Only | Print | Product List | Glossary On
Versions: 1 2 3 4 5 6 7 8 9 10 11 12 13 14 15 16 17 18 19 20 21 22 23 24 25 26 27 28 29 30 31 32 33 34 35 36 37 38 39 40 41 42 43 44 45 46 47 48 49 50
000
ASUS43 KLSX 210807
RWRMO

WEATHER SUMMARY FOR MISSOURI
NATIONAL WEATHER SERVICE SPRINGFIELD MO
200 AM CST TUE NOV 21 2017

NOTE: "FAIR" INDICATES FEW OR NO CLOUDS BELOW 12,000 FEET WITH NO
       SIGNIFICANT WEATHER AND/OR OBSTRUCTIONS TO VISIBILITY.
       CURRENT SKY AND/OR WEATHER CONDITIONS ARE NOT AVAILABLE FOR
       CHILLICOTHE AND FARMINGTON.

MOZ001>031-035>038-043-044-053-054-210900-
...NORTHERN AND WESTERN MISSOURI...

CITY           SKY/WX    TMP DP  RH WIND       PRES   REMARKS
KANSAS CTY INT MOCLDY    47  31  53 SW7       29.75R
KANSAS C DTWN  CLOUDY    53  30  41 SW14      29.75S
LEE`S SUMMIT   CLOUDY    50  31  48 SW14      29.76S
ST JOSEPH      CLOUDY    45  33  63 SW7       29.74R
CHILLICOTHE      N/A     45  32  60 S6        29.75S
KIRKSVILLE     CLEAR     47  32  56 SW10      29.73S

$$
MOZ066>068-077>081-088>096-101>105-210900-
...SOUTHWEST MISSOURI...

CITY           SKY/WX    TMP DP  RH WIND       PRES   REMARKS
SPRINGFIELD    CLEAR     44  32  62 S10       29.83F
JOPLIN         CLOUDY    50  33  52 S15       29.83F
BRANSON        CLOUDY    46  30  53 CALM      29.87F

$$
MOZ032>034-039>042-045>050-055>058-069>072-210900-
...CENTRAL MISSOURI...

CITY           SKY/WX    TMP DP  RH WIND       PRES   REMARKS
COLUMBIA       CLOUDY    43  30  60 S12       29.80S
JEFFERSON CITY PTCLDY    48  30  49 SE6       29.82F
ROLLA          CLEAR     43  29  57 S12       29.84F
SEDALIA        CLEAR     50  33  52 SW16      29.80S
WHITEMAN AFB   CLEAR     46  32  58 SW10      29.74S
WARRENSBURG    PTCLDY    46  32  57 S9        29.78S
OSAGE BEACH    CLEAR     48  32  53 SW10      29.83S

$$
MOZ051-052-059>065-210900-
...EAST CENTRAL MISSOURI...

CITY           SKY/WX    TMP DP  RH WIND       PRES   REMARKS
ST LOUIS INTL  MOCLDY    47  29  49 S8        29.84F
SPIRIT OF STL  MOCLDY    50  29  44 SW12      29.83F
ST CHARLES     CLOUDY    42  29  59 S7        29.83F

$$
MOZ072>076-082>087-097>100-106>115-210900-
...SOUTH CENTRAL AND SOUTHEAST MISSOURI...

CITY           SKY/WX    TMP DP  RH WIND       PRES   REMARKS
CAPE GIRARDEAU CLOUDY    40  28  62 S9        29.97F
FARMINGTON     CLOUDY    42  28  57 S9        29.91F
POPLAR BLUFF   CLOUDY    38  30  73 S5        29.97S
WEST PLAINS    PTCLDY    43  28  55 S7        29.90F

$$


USA.gov is the U.S. government's official web portal to all federal, state and local government web resources and services.